Lexington Weather

Lexington, Massachusetts, USA

68°F
7/3/2020 12:59pm 
  • Lexington Conditions: Overcast
  • Temperature: 67.8°F / 19.9°CColder 0.7°F than last hour.
  • Dew Point: 63.9°FDecreased 0.7°Fsince last hour.
  • Relative Humidity: 87
  • Wind: Wind from NE NE 2 mph, 10-min avg: 1 mph, gust: 4 mph
  • Barometer: 29.86 in Steady
  • Visibility: 10 miles
  • Rain Today: 0.00 in
  •   

Regional Weather Roundup
for Boston / Norton, MA

        
000
ASUS41 KBOX 300404
RWRBOX

REGIONAL WEATHER ROUNDUP
NATIONAL WEATHER SERVICE BOSTON/NORTON MA
1200 AM EDT TUE JUN 30 2020

NOTE:  "FAIR" INDICATES FEW OR NO CLOUDS BELOW 12,000 FEET WITH NO 
SIGNIFICANT WEATHER AND/OR OBSTRUCTIONS TO VISIBILITY.

MAZALL-300500-
EASTERN MASSACHUSETTS
  
CITY           SKY/WX    TMP DP  RH WIND       PRES   REMARKS
BOSTON         CLOUDY    63  62  97 NE6       29.87F                  
BEVERLY        LGT RAIN  63  62  97 NE7       29.88R FOG              
LAWRENCE       CLOUDY    64  63  96 NE9       29.90S                  
BEDFORD        CLOUDY    65  62  90 NE5       29.86S                  
BLUE HILL        N/A     62  61  96 NE5       29.87S                  
NORWOOD        CLOUDY    66  62  87 CALM      29.87S                  
MARSHFIELD     CLOUDY    68  66  94 CALM      29.86S                  
PLYMOUTH       CLOUDY    66  64  93 NE5       29.86S                  
TAUNTON        CLOUDY    67  64  90 VRB3      29.85F                  
NEW BEDFORD    CLOUDY    67  66  97 NE5       29.85S                  
$$

MAZALL-300500-
CAPE COD AND THE ISLANDS
  
CITY           SKY/WX    TMP DP  RH WIND       PRES   REMARKS
FALMOUTH       CLOUDY    64  64 100 E6        29.85S                  
HYANNIS        CLOUDY    68  63  84 CALM      29.84R                  
CHATHAM        CLOUDY    65  62  90 E8        29.85S                  
PROVINCETOWN   MOCLDY    64  63  96 CALM      29.86S                  
NANTUCKET      CLOUDY    63  61  93 NE8       29.82F FOG              
MARTHAS VNYRD  CLOUDY    66  64  93 NE7       29.84S                  
$$
 
MAZALL-300500-
CENTRAL AND WESTERN MASSACHUSETTS
  
CITY           SKY/WX    TMP DP  RH WIND       PRES   REMARKS
WORCESTER      CLOUDY    64  62  93 CALM      29.90R                  
FITCHBURG      CLOUDY    65  61  87 NE3       29.89R                  
ORANGE         CLOUDY    65  63  93 NW7       29.90R                  
SPRINGFIELD    CLOUDY    65  65 100 N3        29.87R                  
WESTFIELD      CLOUDY    65  63  93 NE3       29.88R                  
NORTH ADAMS    CLOUDY    65  61  87 W6        29.91S                  
PITTSFIELD     CLOUDY    65  62  90 N3        29.90S                  
$$
 
RIZALL-300500-
RHODE ISLAND
  
CITY           SKY/WX    TMP DP  RH WIND       PRES   REMARKS
PROVIDENCE     CLOUDY    67  64  90 NE6       29.86S                  
NEWPORT        CLOUDY    68  64  87 NE7       29.85S                  
BLOCK ISLAND   PTCLDY    65  64  97 NW5       29.86S                  
SMITHFIELD     CLOUDY    65  64  97 NE6       29.88S                  
WESTERLY       CLOUDY    69  65  86 CALM      29.86S FOG              
$$
 
CTZALL-300500-
CONNECTICUT
  
CITY           SKY/WX    TMP DP  RH WIND       PRES   REMARKS
BRADLEY INTL   MOCLDY    64  62  93 N5        29.87S                  
HARTFORD       PTCLDY    69  64  84 N8        29.86S                  
BRIDGEPORT     MOCLDY    70  64  81 N3        29.87R                  
DANBURY        MOCLDY    65  63  93 CALM      29.90R                  
GROTON         MOCLDY    65  64  97 CALM      29.85S                  
NEW HAVEN      PTCLDY    65  64  97 CALM      29.87R                  
CHESTER        FAIR     N/A N/A N/A N7        29.88R                  
MERIDEN        NOT AVBL                                               
WILLIMANTIC    CLOUDY    67  66  97 CALM      29.87R                  
OXFORD         PTCLDY    63  62  97 CALM      29.91R                  
$$

MEZ002-015-021-024-NHZ003-005-008-011-012-014-VTZ005-008-300500-
NORTHERN NEW ENGLAND
  
CITY           SKY/WX    TMP DP  RH WIND       PRES   REMARKS
PORTLAND ME    CLOUDY    65  61  87 N7        29.90F                  
BANGOR ME      LGT RAIN  66  64  93 NE9       29.93S                  
CONCORD NH     CLOUDY    63  62  97 NE6       29.91R                  
MANCHESTER NH  CLOUDY    64  62  93 NE10      29.89R                  
NASHUA NH      CLOUDY    64  64 100 E5        29.89S                  
PORTSMOUTH NH  CLOUDY    62  61  96 NE5       29.89R FOG              
JAFFREY NH     LGT RAIN  62  60  93 VRB3      29.92R                  
KEENE NH       LGT RAIN  64  63  96 N3        29.90R                  
BURLINGTON VT  CLOUDY    67  64  90 N8        29.92F                  
MT. WASHINGTON LGT RAIN  46  46 100 E26         N/A  VSB 1/16         
$$

NYZ052-076-300500-
EASTERN NEW YORK
  
CITY           SKY/WX    TMP DP  RH WIND       PRES   REMARKS
ALBANY         LGT RAIN  68  62  81 N5        29.91S                  
NEW YORK CITY  PTCLDY    74  63  68 N6        29.87S                  
$$
 
ANZALL-300500-
MARINE OBSERVATIONS
  
STATION/POSITION TIME  TEMP    WIND        PRES    VSBY  WAVE
                       AIR SEA DIR/SP/G                  HT/PER
                 (UTC) (F)     (DEG/KT/KT) (MB)    (MI)  (FT/S)
BOSTON BUOY      0250   65 65  350/  2/  4 1010.5          2/ 6
BUZZARDS BAY     0300          350/  6/  6 1011.6F
NANTUCKET SOUND  0340   64 70   80/ 10/ 12 1009.6S
MASS BAY-STELLWA 0304   66     100/  2/  4 1009.3S  1 7/8  3/ 5
ISLE OF SHOALS   0300   60      30/ 14/ 16 1011.6R
S OF BLOCK IS    0326      70                N/A           3/ 9
$$

......................KEY.........................
  SKY/WX - SKY CONDITION/PRESENT WEATHER
  TMP    - TEMPERATURE IN FAHRENHEIT
  DWPT   - DEWPOINT IN FAHRENHEIT
  RH     - RELATIVE HUMIDITY IN PERCENT
  WIND   - DIRECTION AND SPEED IN MPH
  PRES   - MEAN SEA LEVEL PRESSURE IN INCHES OF HG
  WCI    - WIND CHILL INDEX
  VSB    - VISIBILITY IN MILES
  HX     - HEAT INDEX
  TC     - TEMPERATURE IN CELSIUS
  VRB    - VARIABLE WIND DIRECTION
  N/A    - NOT AVAILABLE
  
      

Other recent Regional Weather Roundups

Fri Jul 3, 12:04pm

Fri Jul 3, 11:04am

Fri Jul 3, 10:04am

Fri Jul 3, 9:04am

Fri Jul 3, 8:04am

Fri Jul 3, 7:04am

Fri Jul 3, 6:04am

Fri Jul 3, 5:04am

Fri Jul 3, 4:04am

Fri Jul 3, 3:04am

Fri Jul 3, 2:04am

Fri Jul 3, 1:04am

Fri Jul 3, 12:04am

Thu Jul 2, 11:05pm

Thu Jul 2, 10:04pm

Thu Jul 2, 9:04pm

Thu Jul 2, 8:04pm

Thu Jul 2, 7:05pm

Thu Jul 2, 6:04pm

Thu Jul 2, 5:05pm

Thu Jul 2, 4:04pm

Thu Jul 2, 3:04pm

Thu Jul 2, 2:04pm

Thu Jul 2, 1:05pm

Thu Jul 2, 12:04pm

Thu Jul 2, 11:04am

Thu Jul 2, 10:05am

Thu Jul 2, 9:05am

Thu Jul 2, 8:04am

Thu Jul 2, 7:04am

Thu Jul 2, 6:05am

Thu Jul 2, 5:04am

Thu Jul 2, 4:04am

Thu Jul 2, 3:04am

Thu Jul 2, 2:04am

Thu Jul 2, 1:04am

Thu Jul 2, 12:05am

Wed Jul 1, 11:05pm

Wed Jul 1, 10:04pm

Wed Jul 1, 9:04pm

Wed Jul 1, 8:04pm

Wed Jul 1, 7:04pm

Wed Jul 1, 6:04pm

Wed Jul 1, 5:05pm

Wed Jul 1, 4:04pm

Wed Jul 1, 3:04pm

Wed Jul 1, 2:04pm

Wed Jul 1, 1:04pm

Wed Jul 1, 12:04pm

Wed Jul 1, 11:04am

Wed Jul 1, 10:04am

Wed Jul 1, 9:04am

Wed Jul 1, 8:05am

Wed Jul 1, 7:04am

Wed Jul 1, 6:04am

Wed Jul 1, 5:04am

Wed Jul 1, 4:04am

Wed Jul 1, 3:04am

Wed Jul 1, 2:04am

Wed Jul 1, 1:04am

Wed Jul 1, 12:04am

Tue Jun 30, 11:04pm

Tue Jun 30, 10:05pm

Tue Jun 30, 9:04pm

Tue Jun 30, 8:05pm

Tue Jun 30, 7:05pm

Tue Jun 30, 6:04pm

Tue Jun 30, 5:04pm

Tue Jun 30, 4:04pm

Tue Jun 30, 3:04pm

Tue Jun 30, 2:04pm

Tue Jun 30, 1:04pm

Tue Jun 30, 12:04pm

Tue Jun 30, 11:04am

Tue Jun 30, 10:04am

Tue Jun 30, 9:04am

Tue Jun 30, 8:04am

Tue Jun 30, 7:04am

Tue Jun 30, 6:04am

Tue Jun 30, 5:04am

Tue Jun 30, 4:04am

Tue Jun 30, 3:04am

Tue Jun 30, 2:04am

Tue Jun 30, 1:04am

Mon Jun 29, 11:04pm

Mon Jun 29, 10:05pm

Mon Jun 29, 9:04pm

Mon Jun 29, 8:05pm

Mon Jun 29, 7:04pm

Mon Jun 29, 6:04pm

Mon Jun 29, 5:04pm

Mon Jun 29, 4:05pm

Mon Jun 29, 3:04pm

Mon Jun 29, 2:04pm

Mon Jun 29, 1:04pm

Mon Jun 29, 12:04pm

Mon Jun 29, 11:04am

Mon Jun 29, 10:04am

Mon Jun 29, 9:04am

Mon Jun 29, 8:04am

Mon Jun 29, 7:04am

Mon Jun 29, 6:04am

Mon Jun 29, 5:04am

Mon Jun 29, 4:04am

Mon Jun 29, 3:04am

Mon Jun 29, 2:04am

Mon Jun 29, 1:04am

Mon Jun 29, 12:04am

Sun Jun 28, 11:05pm

Sun Jun 28, 10:04pm

Sun Jun 28, 9:05pm

Sun Jun 28, 8:04pm

Sun Jun 28, 7:04pm

Sun Jun 28, 6:04pm

Sun Jun 28, 5:04pm

Sun Jun 28, 4:04pm

Sun Jun 28, 3:04pm

Sun Jun 28, 2:05pm

Sun Jun 28, 1:04pm

Sun Jun 28, 12:04pm

Sun Jun 28, 11:04am

Sun Jun 28, 10:04am

Sun Jun 28, 9:04am

Sun Jun 28, 8:04am

Sun Jun 28, 7:04am

Sun Jun 28, 6:04am

Sun Jun 28, 5:04am

Sun Jun 28, 4:04am

Sun Jun 28, 3:04am

Sun Jun 28, 2:05am

Sun Jun 28, 1:04am

Sun Jun 28, 12:05am

Sat Jun 27, 11:04pm

Sat Jun 27, 10:04pm

Sat Jun 27, 9:04pm

Sat Jun 27, 8:04pm

Sat Jun 27, 7:04pm

Sat Jun 27, 6:04pm

Sat Jun 27, 5:04pm

Sat Jun 27, 4:05pm

Sat Jun 27, 3:04pm

Sat Jun 27, 2:04pm

Sat Jun 27, 1:05pm

Sat Jun 27, 12:04pm

Sat Jun 27, 11:04am

Sat Jun 27, 10:04am

Sat Jun 27, 9:04am

Sat Jun 27, 8:04am

Sat Jun 27, 7:04am

Sat Jun 27, 6:04am

Sat Jun 27, 5:05am

Sat Jun 27, 4:04am

Sat Jun 27, 3:04am

Sat Jun 27, 2:04am

Sat Jun 27, 1:04am

Sat Jun 27, 12:04am

Fri Jun 26, 11:04pm

Fri Jun 26, 10:04pm

Fri Jun 26, 9:05pm

Fri Jun 26, 8:04pm

Fri Jun 26, 7:05pm

Fri Jun 26, 6:04pm

Fri Jun 26, 5:04pm

Fri Jun 26, 4:04pm

Fri Jun 26, 3:04pm

Fri Jun 26, 2:05pm

Fri Jun 26, 1:04pm

Meta data:

ID: ddf465ff-7759-470f-8ba1-f7b0ef0262a2
Link: https://api.weather.gov/products/ddf465ff-7759-470f-8ba1-f7b0ef0262a2